Home   Weather   Monrovia   Past weeks

Flag for Liberia Past Weather in Monrovia, Liberia — Yesterday and Last 2 Weeks

Now
75 °F

Partly sunny.


Feels Like: 74 °F
Forecast: 76 / 85 °F
Wind: 5 mph from Northeast

Location: Roberts Field

Current Time: Jan 19, 2017 at 9:02:04 am

Latest Report: Jan 19, 2017 at 8:00 am


Visibility: 4 mi

Pressure: 29.86 "Hg

Humidity: 94%

Dew Point: 73 °F

Location of MonroviaLocation

Past Weather in Monrovia — Graph

°F

Monrovia Temperature Yesterday

Maximum temperature yesterday: 90 °F (at 1:00 pm)
Minimum temperature yesterday: 75 °F (at 6:00 am)
Average temperature yesterday: 82 °F

High & Low Weather Summary for the Past Weeks

 TemperatureHumidityPressure
High95 °F (Jan 14, 3:30 pm)100% (Jan 7, 4:30 am)29.92 "Hg (Jan 7, 4:30 am)
Low68 °F (Jan 14, 6:00 am)31% (Jan 14, 12:30 pm)29.71 "Hg (Jan 14, 3:30 pm)
Average81 °F83%29.83 "Hg
* Reported Jan 4 8:00 am — Jan 19 8:00 am, Monrovia, Weather by CustomWeather, © 2017

Note: Actual official high and low records may vary slightly from our data, if they occured in-between our weather recording intervals... More about our weather records

Advertising

Monrovia Weather History for the Previous 24 Hours

Scroll right to see more
 ConditionsComfort  
Time TempWeatherWind HumidityBarometerVisibility
8:00 am
Thu, Jan 19
75 °FPartly sunny.5 mph94%29.86 "Hg4 mi
7:30 am75 °FPassing clouds.5 mph94%29.86 "Hg4 mi
7:00 am75 °FPassing clouds.3 mph94%29.83 "Hg4 mi
6:30 am75 °FPassing clouds.5 mph94%29.83 "Hg4 mi
6:00 am75 °FPassing clouds.3 mph94%29.83 "Hg4 mi
5:30 am77 °FPassing clouds.No wind94%29.83 "Hg4 mi
5:00 am77 °FPassing clouds.5 mph94%29.83 "Hg5 mi
2:30 am77 °FPassing clouds.No wind94%29.83 "Hg5 mi
2:00 am77 °FPassing clouds.No wind94%29.83 "Hg5 mi
1:30 am77 °FPassing clouds.No wind94%29.86 "Hg5 mi
1:00 am77 °FPassing clouds.3 mph94%29.86 "Hg5 mi
12:30 am77 °FPassing clouds.No wind94%29.86 "Hg5 mi
12:00 am77 °FPassing clouds.3 mph94%29.86 "HgN/A
11:30 pm
Wed, Jan 18
77 °FPassing clouds.No wind94%29.86 "HgN/A
11:00 pm77 °FPassing clouds.No wind94%29.86 "HgN/A
10:30 pm79 °FPassing clouds.3 mph94%29.86 "HgN/A
10:00 pm79 °FPassing clouds.3 mph94%29.86 "HgN/A
9:30 pm79 °FPassing clouds.3 mph94%29.86 "HgN/A
9:00 pm79 °FPassing clouds.No wind94%29.86 "HgN/A
8:30 pm81 °FPassing clouds.No wind84%29.86 "HgN/A
8:00 pm81 °FPassing clouds.No wind89%29.83 "HgN/A
7:30 pm81 °FScattered clouds.No wind89%29.83 "HgN/A
7:00 pm82 °FScattered clouds.3 mph84%29.83 "HgN/A
6:30 pm84 °FScattered clouds.5 mph79%29.80 "HgN/A
5:00 pm86 °FBroken clouds.8 mph75%29.77 "HgN/A
4:30 pm88 °FBroken clouds.8 mph66%29.77 "HgN/A
4:00 pm90 °FBroken clouds.7 mph63%29.77 "HgN/A
3:30 pm90 °FBroken clouds.9 mph63%29.77 "HgN/A
3:00 pm90 °FBroken clouds.12 mph63%29.77 "HgN/A
2:30 pm88 °FScattered clouds.10 mph66%29.80 "HgN/A
2:00 pm88 °FPartly sunny.12 mph66%29.80 "HgN/A
1:30 pm88 °FPartly sunny.7 mph70%29.80 "HgN/A
1:00 pm90 °FPartly sunny.12 mph67%29.83 "HgN/A
12:30 pm88 °FPartly sunny.6 mph70%29.86 "HgN/A
12:00 pm88 °FPartly sunny.No wind66%29.86 "HgN/A
11:30 am86 °FPartly sunny.No wind75%29.86 "HgN/A
11:00 am84 °FPartly sunny.3 mph79%29.86 "HgN/A
10:30 am84 °FScattered clouds.5 mph79%29.86 "HgN/A
10:00 am82 °FPassing clouds.5 mph79%29.86 "HgN/A
9:30 am81 °FScattered clouds.3 mph89%29.89 "HgN/A
9:00 am79 °FScattered clouds.3 mph94%29.86 "Hg6 mi
Weather by CustomWeather, © 2017

See weather overviewHow to use our weather pages